BEIDOU-2 IGSO-7

Last updated on Tue Dec 16 2025 00:02:51 GMT+0000 (Coordinated Universal Time)

1 43539U 18057A 25349.32438797 -.00000023 00000+0 00000+0 0 9995 2 43539 55.1766 164.6485 0092621 235.2644 271.8458 1.00256546 27289
UTC large
Height (km)
Speed (km/s)
/
Latitude / Longitude
Inclination (degrees)
Orbital Period (minutes)
Azimuth
Elevation
Range (km)
Doppler Factor

Next 0 passes for location: London (51.5072 / 0.1276)

Sorry there are no passes over London.